Location: Newark
(34.1333°N, 7.9667°W)
Time: 04:09:29
(UTC+00:00)

Oscar 11 - Visible Passes

Search period start: 02 June 2023 00:00
Search period end: 12 June 2023 00:00
Orbit: 609 x 618 km, 97.7° (Epoch: 01 June)

Date Brightness Start Highest point End Pass type
(mag) Time Alt. Az. Time Alt. Az. Time Alt. Az.
02 Jun 7.7 04:33:01 10° NNE 04:37:16 56° E 04:41:28 10° S visible
03 Jun 7.1 04:48:21 10° NNE 04:52:41 87° ESE 04:56:58 10° SSW visible
05 Jun 9.8 03:44:57 10° ENE 03:47:16 14° E 03:49:35 10° SE visible
06 Jun 9.4 03:59:27 10° NE 04:02:47 22° E 04:06:05 10° SE visible
07 Jun 8.7 04:14:21 10° NNE 04:18:15 33° E 04:22:06 10° SSE visible
08 Jun 7.9 04:29:28 10° NNE 04:33:41 51° E 04:37:50 10° S visible
09 Jun 7.2 04:44:46 10° NNE 04:49:05 81° ESE 04:53:21 10° S visible
11 Jun 9.8 03:41:37 10° ENE 03:43:36 13° E 03:45:36 10° ESE visible
